ラ・サグラ彗星

279P/La Sagra (2023)

English version
Home page
Updated on May 29, 2022

---------------------------------------------------------------------

・ プロフィール

・ 軌道要素

Epoch 2022 Jan. 21.0 TT = JDT 2459600.5                                         
T 2023 Apr. 19.57270 TT                                 Rudenko                 
q   2.1487431            (2000.0)            P               Q                  
n   0.14592210     Peri.    5.83293     +0.99033451     +0.13710707             
a   3.5731837      Node   346.23338     -0.13054931     +0.87040548             
e   0.3986474      Incl.    5.05250     -0.04684484     +0.47285933             
P   6.75                                                                        
From 254 observations 2002 July 12-2016 Nov. 26, mean residual 0".6.            

・ 光度変化

        m1 = 15.2 + 5 logΔ + 10.0 log r

---------------------------------------------------------------------

軌道要素はM.P.E.C. 2022-K19に掲載されたものです。
光度グラフはComet for Windowsで作成したものです。

---------------------------------------------------------------------

Copyright(C) Seiichi Yoshida (comet@aerith.net). All rights reserved.